KLM96A EHAM-EGLL

Flight info

Callsign KLM96A
Flight time 0h 43m
Altitude 20000
Route IDRID L980 LOGAN
Aircraft A321/M-SDE3FGHIRWY/LB1

Departure

Time 2026-05-04 15:30
Airport Amsterdam Airport Schiphol (EHAM)

Arrival

Time 2026-05-04 16:13
Airport London Heathrow Airport (EGLL)
Time Latitude Longitude Altitude Speed Heading
2026-05-04 14:51 52.31002 4.77118 -1 ft 0 kts 183°
2026-05-04 15:06 52.31003 4.77118 -1 ft 0 kts 183°
2026-05-04 15:12 52.31004 4.77118 -1 ft 2 kts 183°
2026-05-04 15:12 52.31029 4.77117 -1 ft 4 kts 169°
2026-05-04 15:12 52.31055 4.77108 -1 ft 4 kts 177°
2026-05-04 15:13 52.31072 4.77114 -1 ft 2 kts 237°
2026-05-04 15:13 52.31079 4.77145 -1 ft 1 kts 257°
2026-05-04 15:13 52.31079 4.77146 -1 ft 2 kts 257°
2026-05-04 15:17 52.31079 4.77143 -1 ft 2 kts 257°
2026-05-04 15:17 52.31079 4.77058 -1 ft 11 kts 272°
2026-05-04 15:18 52.31113 4.76944 -1 ft 12 kts 336°
2026-05-04 15:18 52.31196 4.76988 -1 ft 13 kts 34°
2026-05-04 15:18 52.31274 4.77074 -1 ft 14 kts 33°
2026-05-04 15:19 52.31467 4.77165 -1 ft 17 kts 316°
2026-05-04 15:19 52.31480 4.76975 -1 ft 18 kts 267°
2026-05-04 15:19 52.31465 4.76525 -1 ft 22 kts 267°
2026-05-04 15:20 52.31457 4.76271 -1 ft 23 kts 266°
2026-05-04 15:20 52.31448 4.75998 -1 ft 25 kts 266°
2026-05-04 15:20 52.31437 4.75720 -1 ft 24 kts 266°
2026-05-04 15:20 52.31426 4.75452 -1 ft 23 kts 266°
2026-05-04 15:21 52.31416 4.75192 -1 ft 23 kts 266°
2026-05-04 15:21 52.31408 4.74940 -1 ft 22 kts 268°
2026-05-04 15:21 52.31394 4.74469 -1 ft 14 kts 266°
2026-05-04 15:22 52.31399 4.74315 -1 ft 13 kts 300°
2026-05-04 15:22 52.31480 4.74289 -1 ft 13 kts
2026-05-04 15:22 52.31706 4.74313 -1 ft 24 kts
2026-05-04 15:23 52.31876 4.74328 -1 ft 22 kts
2026-05-04 15:23 52.31984 4.74334 -1 ft 13 kts 352°
2026-05-04 15:23 52.32032 4.74208 -1 ft 17 kts 272°
2026-05-04 15:23 52.32039 4.73984 -2 ft 21 kts 274°
2026-05-04 15:24 52.32052 4.73610 -1 ft 21 kts 273°
2026-05-04 15:24 52.32234 4.73152 -1 ft 30 kts 320°
2026-05-04 15:25 52.32405 4.72914 -1 ft 33 kts 319°
2026-05-04 15:25 52.32574 4.72674 -1 ft 32 kts 319°
2026-05-04 15:25 52.32731 4.72425 -1 ft 31 kts 311°
2026-05-04 15:26 52.33008 4.71912 -1 ft 29 kts 311°
2026-05-04 15:26 52.33112 4.71720 -1 ft 14 kts 311°
2026-05-04 15:26 52.33084 4.71431 -1 ft 19 kts 221°
2026-05-04 15:27 52.32984 4.71285 -1 ft 19 kts 221°
2026-05-04 15:27 52.32861 4.71003 -2 ft 14 kts 270°
2026-05-04 15:28 52.32947 4.70899 -3 ft 0 kts
2026-05-04 15:28 52.32963 4.70900 -3 ft 18 kts
2026-05-04 15:28 52.34150 4.71006 -3 ft 141 kts
2026-05-04 15:29 52.35253 4.71110 127 ft 168 kts
2026-05-04 15:30 52.39973 4.71510 2109 ft 194 kts
2026-05-04 15:30 52.44347 4.69858 2766 ft 254 kts 315°
2026-05-04 15:31 52.46355 4.65038 4327 ft 262 kts 287°
2026-05-04 15:31 52.46662 4.62092 5150 ft 264 kts 271°
2026-05-04 15:32 52.45650 4.53255 7491 ft 272 kts 234°
2026-05-04 15:32 52.42806 4.49197 8985 ft 277 kts 222°
2026-05-04 15:33 52.40431 4.44132 10290 ft 290 kts 235°
2026-05-04 15:34 52.36601 4.35203 11262 ft 337 kts 235°
2026-05-04 15:34 52.35242 4.32044 11928 ft 341 kts 235°
2026-05-04 15:34 52.32492 4.25632 13263 ft 348 kts 236°
2026-05-04 15:35 52.29688 4.19109 14520 ft 354 kts 236°
2026-05-04 15:35 52.28263 4.15801 15137 ft 357 kts 236°
2026-05-04 15:35 52.27313 4.13599 15538 ft 359 kts 235°
2026-05-04 15:36 52.26281 4.11250 15964 ft 361 kts 235°
2026-05-04 15:36 52.24820 4.07896 16571 ft 364 kts 235°
2026-05-04 15:36 52.23358 4.04504 17149 ft 367 kts 235°
2026-05-04 15:37 52.21891 4.01094 17753 ft 369 kts 235°
2026-05-04 15:37 52.20409 3.97653 18322 ft 372 kts 235°
2026-05-04 15:37 52.18911 3.94182 18817 ft 375 kts 235°
2026-05-04 15:37 52.17400 3.90702 19320 ft 378 kts 235°
2026-05-04 15:38 52.15873 3.87202 19796 ft 380 kts 235°
2026-05-04 15:38 52.14339 3.83693 19958 ft 381 kts 235°
2026-05-04 15:38 52.12802 3.80187 20004 ft 379 kts 235°
2026-05-04 15:38 52.11269 3.76694 20005 ft 379 kts 235°
2026-05-04 15:39 52.09739 3.73201 20006 ft 379 kts 235°
2026-05-04 15:39 52.08229 3.69754 20013 ft 379 kts 235°
2026-05-04 15:39 52.05166 3.62779 20020 ft 379 kts 235°
2026-05-04 15:40 52.03633 3.59295 20019 ft 379 kts 235°
2026-05-04 15:40 52.02099 3.55815 20022 ft 379 kts 235°
2026-05-04 15:40 52.00558 3.52328 20021 ft 379 kts 235°
2026-05-04 15:40 51.99020 3.48852 20020 ft 379 kts 234°
2026-05-04 15:41 51.97478 3.45372 20020 ft 379 kts 234°
2026-05-04 15:41 51.95936 3.41895 20019 ft 379 kts 234°
2026-05-04 15:41 51.94395 3.38428 20020 ft 380 kts 234°
2026-05-04 15:41 51.92851 3.34960 20021 ft 380 kts 234°
2026-05-04 15:42 51.91302 3.31486 20021 ft 380 kts 234°
2026-05-04 15:42 51.89758 3.28020 20019 ft 380 kts 234°
2026-05-04 15:42 51.88216 3.24560 20018 ft 380 kts 234°
2026-05-04 15:42 51.86684 3.21077 20017 ft 379 kts 237°
2026-05-04 15:43 51.85460 3.17300 20011 ft 379 kts 248°
2026-05-04 15:43 51.84709 3.13218 20011 ft 379 kts 259°
2026-05-04 15:43 51.84392 3.08981 20005 ft 380 kts 264°
2026-05-04 15:43 51.84130 3.04732 20001 ft 380 kts 263°
2026-05-04 15:44 51.83859 3.00544 20003 ft 380 kts 263°
2026-05-04 15:44 51.83577 2.96300 20005 ft 380 kts 263°
2026-05-04 15:44 51.83294 2.92050 20000 ft 380 kts 263°
2026-05-04 15:44 51.83010 2.87802 20000 ft 380 kts 263°
2026-05-04 15:45 51.82725 2.83556 19998 ft 380 kts 263°
2026-05-04 15:45 51.82441 2.79307 20003 ft 380 kts 263°
2026-05-04 15:45 51.82155 2.75058 20004 ft 380 kts 263°
2026-05-04 15:45 51.81865 2.70816 20003 ft 380 kts 263°
2026-05-04 15:46 51.81574 2.66566 20004 ft 380 kts 263°
2026-05-04 15:46 51.81283 2.62325 20003 ft 380 kts 263°
2026-05-04 15:46 51.80992 2.58078 20002 ft 380 kts 263°
2026-05-04 15:46 51.80698 2.53829 20002 ft 380 kts 263°
2026-05-04 15:47 51.80403 2.49580 20003 ft 381 kts 262°
2026-05-04 15:47 51.80105 2.45325 20002 ft 381 kts 262°
2026-05-04 15:47 51.79803 2.41079 20003 ft 381 kts 262°
2026-05-04 15:47 51.79499 2.36830 20008 ft 381 kts 262°
2026-05-04 15:48 51.79196 2.32637 20008 ft 381 kts 262°
2026-05-04 15:48 51.78887 2.28380 20008 ft 381 kts 262°
2026-05-04 15:48 51.78280 2.19870 20010 ft 382 kts 263°
2026-05-04 15:49 51.78016 2.15599 20010 ft 382 kts 263°
2026-05-04 15:49 51.77773 2.11334 20011 ft 382 kts 264°
2026-05-04 15:49 51.77538 2.07056 20014 ft 382 kts 264°
2026-05-04 15:49 51.77302 2.02787 20012 ft 382 kts 263°
2026-05-04 15:50 51.77057 1.98510 20015 ft 382 kts 263°
2026-05-04 15:50 51.76805 1.94233 20016 ft 383 kts 263°
2026-05-04 15:50 51.76548 1.89958 20016 ft 383 kts 263°
2026-05-04 15:50 51.76286 1.85688 20018 ft 383 kts 263°
2026-05-04 15:51 51.76022 1.81405 20017 ft 383 kts 263°
2026-05-04 15:51 51.75756 1.77128 20019 ft 383 kts 263°
2026-05-04 15:51 51.75488 1.72854 20023 ft 383 kts 263°
2026-05-04 15:51 51.75217 1.68575 20024 ft 383 kts 263°
2026-05-04 15:52 51.74948 1.64301 20023 ft 383 kts 263°
2026-05-04 15:52 51.74681 1.60026 20026 ft 383 kts 263°
2026-05-04 15:52 51.74414 1.55752 20025 ft 383 kts 263°
2026-05-04 15:52 51.74145 1.51476 20028 ft 383 kts 263°
2026-05-04 15:53 51.73870 1.47201 20028 ft 383 kts 263°
2026-05-04 15:53 51.73592 1.42926 20026 ft 383 kts 263°
2026-05-04 15:53 51.73313 1.38649 20030 ft 383 kts 263°
2026-05-04 15:53 51.73033 1.34375 20027 ft 383 kts 263°
2026-05-04 15:54 51.72757 1.30160 19788 ft 373 kts 262°
2026-05-04 15:54 51.72487 1.26032 19394 ft 367 kts 262°
2026-05-04 15:54 51.72217 1.21961 18951 ft 364 kts 262°
2026-05-04 15:54 51.71950 1.17972 18518 ft 361 kts 262°
2026-05-04 15:55 51.71680 1.13959 18052 ft 359 kts 262°
2026-05-04 15:55 51.71409 1.09982 17611 ft 355 kts 262°
2026-05-04 15:55 51.71136 1.05999 17182 ft 351 kts 262°
2026-05-04 15:55 51.70871 1.02164 16776 ft 347 kts 262°
2026-05-04 15:56 51.70605 0.98324 16367 ft 343 kts 262°
2026-05-04 15:56 51.70343 0.94520 15967 ft 340 kts 263°
2026-05-04 15:56 51.70085 0.90743 15468 ft 339 kts 263°
2026-05-04 15:56 51.69826 0.86965 14976 ft 339 kts 263°
2026-05-04 15:57 51.69565 0.83191 14501 ft 339 kts 263°
2026-05-04 15:57 51.69299 0.79424 14012 ft 339 kts 263°
2026-05-04 15:57 51.69030 0.75651 13495 ft 340 kts 263°
2026-05-04 15:57 51.68762 0.71877 13001 ft 338 kts 263°
2026-05-04 15:58 51.68497 0.68121 12517 ft 336 kts 263°
2026-05-04 15:58 51.68234 0.64393 12038 ft 335 kts 263°
2026-05-04 15:58 51.67969 0.60667 11598 ft 333 kts 263°
2026-05-04 15:58 51.67703 0.56970 11152 ft 331 kts 263°
2026-05-04 15:59 51.67439 0.53350 10999 ft 320 kts 263°
2026-05-04 15:59 51.67185 0.49868 10872 ft 307 kts 263°
2026-05-04 15:59 51.66937 0.46508 10745 ft 296 kts 263°
2026-05-04 15:59 51.66699 0.43288 10298 ft 285 kts 263°
2026-05-04 16:00 51.66468 0.40135 9609 ft 281 kts 263°
2026-05-04 16:00 51.66240 0.37040 9138 ft 277 kts 263°
2026-05-04 16:00 51.66011 0.33965 8699 ft 277 kts 263°
2026-05-04 16:00 51.65783 0.30886 8262 ft 277 kts 263°
2026-05-04 16:01 51.65556 0.27836 7840 ft 272 kts 263°
2026-05-04 16:01 51.65333 0.24867 7422 ft 269 kts 263°
2026-05-04 16:01 51.65105 0.21875 7068 ft 261 kts 262°
2026-05-04 16:01 51.64892 0.19079 7014 ft 247 kts 262°
2026-05-04 16:02 51.64690 0.16408 7019 ft 236 kts 262°
2026-05-04 16:02 51.64645 0.13776 7025 ft 236 kts 273°
2026-05-04 16:02 51.64858 0.08495 7022 ft 236 kts 272°
2026-05-04 16:03 51.64955 0.05851 7025 ft 236 kts 272°
2026-05-04 16:03 51.65049 0.03212 7030 ft 236 kts 272°
2026-05-04 16:03 51.65141 0.00569 7026 ft 236 kts 272°
2026-05-04 16:03 51.65233 -0.02076 7030 ft 236 kts 272°
2026-05-04 16:04 51.65323 -0.04671 7070 ft 228 kts 272°
2026-05-04 16:04 51.65505 -0.09702 7071 ft 218 kts 272°
2026-05-04 16:04 51.65596 -0.12126 7076 ft 215 kts 272°
2026-05-04 16:05 51.65677 -0.14527 7113 ft 214 kts 269°
2026-05-04 16:05 51.65397 -0.16858 6919 ft 213 kts 245°
2026-05-04 16:05 51.63245 -0.19898 6597 ft 213 kts 198°
2026-05-04 16:06 51.61830 -0.20599 6442 ft 213 kts 198°
2026-05-04 16:06 51.57986 -0.21173 6007 ft 216 kts 160°
2026-05-04 16:07 51.56363 -0.19271 5321 ft 226 kts 128°
2026-05-04 16:07 51.53633 -0.13423 4572 ft 215 kts 139°
2026-05-04 16:08 51.52273 -0.12566 4264 ft 213 kts 181°
2026-05-04 16:08 51.48314 -0.15676 3402 ft 215 kts 206°
2026-05-04 16:09 51.46575 -0.19309 3073 ft 214 kts 262°
2026-05-04 16:09 51.46524 -0.23885 2561 ft 197 kts 272°
2026-05-04 16:10 51.46523 -0.28187 2035 ft 189 kts 272°
2026-05-04 16:11 51.46513 -0.34110 1335 ft 165 kts 271°
2026-05-04 16:11 51.46510 -0.35913 1095 ft 159 kts 272°
2026-05-04 16:12 51.46502 -0.41017 415 ft 149 kts 273°
2026-05-04 16:12 51.46492 -0.45600 84 ft 90 kts 269°
2026-05-04 16:13 51.46500 -0.46574 86 ft 22 kts 287°
2026-05-04 16:13 51.46584 -0.46847 90 ft 0 kts 323°
2026-05-04 16:15 51.46744 -0.46826 85 ft 7 kts 60°
2026-05-04 16:16 51.46748 -0.46562 85 ft 21 kts 89°
2026-05-04 16:16 51.46750 -0.45847 85 ft 21 kts 89°
2026-05-04 16:17 51.46751 -0.45506 85 ft 10 kts 89°
2026-05-04 16:18 51.46838 -0.45446 85 ft 1 kts 360°